Regional Weather Roundup
Issued by NWS

Home | Current Version | Previous Version | Text Only | Print | Product List | Glossary On
Versions: 1 2 3 4 5 6 7 8 9 10 11 12 13 14 15 16 17 18 19 20 21 22 23 24 25 26 27 28 29 30 31 32 33 34 35 36 37 38 39 40 41 42 43 44 45 46 47 48 49 50
000
ASUS43 KDTX 291401
RWRMI
MICHIGAN HOURLY REGIONAL WEATHER ROUNDUP
NATIONAL WEATHER SERVICE DETROIT/PONTIAC MI
1000 AM EDT WED JUL 29 2015

NOTE: "FAIR" INDICATES FEW OR NO CLOUDS BELOW 12,000 FEET WITH NO
SIGNIFICANT WEATHER AND/OR OBSTRUCTION TO VISIBILITY.

MIZ047>049-052>055-059>063-066>070-074>076-081>083-291500-
SOUTHEAST LOWER MICHIGAN

CITY           SKY/WX    TMP DP  RH WIND       PRES   REMARKS
ADRIAN         SUNNY     80  70  71 SW6       29.98F
ALMA           PTSUNNY   77  69  76 SW5       29.94S
ANN ARBOR      MOSUNNY   80  69  69 S5        29.96F
BAD AXE        MOSUNNY   80  65  61 S9        29.95F
CARO           PTSUNNY   79  68  69 S8        29.93F
DETROIT CITY   MOSUNNY   82  69  64 SW8       29.96F
DETROIT        PTSUNNY   80  69  69 S5        29.97F
FLINT          PTSUNNY   82  68  62 S8        29.95F
GROSSE ILE     CLOUDY    81  72  74 SW5       29.96F
HILLSDALE      MOSUNNY   81  74  80 SW3       29.98F
HOWELL         PTSUNNY   79  68  68 S5        29.96F

CITY           SKY/WX    TMP DP  RH WIND       PRES   REMARKS
JACKSON        PTSUNNY   82  72  71 SW6       29.95F
LAMBERTVILLE   SUNNY     83  71  65 CALM      29.97F
LANSING        CLOUDY    78  68  71 SW7       29.95F
LAPEER         PTSUNNY   79  67  67 S6        29.97S
MASON          PTSUNNY   77  69  75 S3        29.95F
MONROE         MOSUNNY   80  71  73 CALM      29.96F
MT. CLEMENS    CLOUDY    81  72  75 S7        29.95S
PONTIAC        CLOUDY    79  68  69 S6        29.96F
PORT HOPE        N/A     81  64  56 VRB6      29.92F
PORT HURON     MOSUNNY   79  70  73 S3        29.97S
TRI CITIES     PTSUNNY   79  71  76 SW9       29.93F
MIDLAND        FAIR      76  67  71 SW5       29.92S
TROY           MOSUNNY   81  68  64 SW5       29.98F
SAGINAW HB     LGT RAIN  73  70  88 S7        29.93F
$$
MIZ043>046-050>051-056>058-064>065-071>073-077>080-291500-
SOUTHWEST LOWER MICHIGAN

CITY           SKY/WX    TMP DP  RH WIND       PRES   REMARKS
BATTLE CREEK   CLOUDY    79  70  74 SW6       29.96S
BENTON HARBOR  CLOUDY    78  72  81 W9        29.95R
BIG RAPIDS     PTSUNNY   80  72  75 W7        29.91F
COLDWATER      MOSUNNY   81  72  73 W6        29.96F
FREMONT        PTSUNNY   79  73  83 W5        29.91F
HOLLAND        CLOUDY    78  72  81 W10       29.94S
GRAND RAPIDS   PTSUNNY   80  71  74 W8        29.93F
IONIA          FAIR      80  69  69 SW7       29.93S
KALAMAZOO      PTSUNNY   80  71  74 SW7       29.95F
LUDINGTON      CLOUDY    76  71  85 W8        29.91R
MARSHALL       PTSUNNY   80  71  73 SW7       29.95F
MOUNT PLEASANT MOSUNNY   82  67  59 S6        29.92F
MUSKEGON       CLOUDY    77  71  82 W7        29.92S
SOUTH HAVEN    CLOUDY    78  72  82 W6        29.94S
$$
MIZ016>042-291500-
NORTHERN LOWER MICHIGAN

CITY           SKY/WX    TMP DP  RH WIND       PRES   REMARKS
ALPENA         PTSUNNY   83  65  54 S9        29.88F
BEAVER ISLAND  CLOUDY    76  70  81 SW13G22   29.83F
BELLAIRE       CLOUDY    80  69  70 SW8       29.87S
CADILLAC       PTSUNNY   79  71  76 SW8       29.92S
CHARLEVOIX     CLOUDY    79  69  71 SW13G18   29.88S
FRANKFORT      CLOUDY    73  71  92 SW5       29.88F
GAYLORD        PTSUNNY   78  69  73 SW10      29.90F
GRAYLING       MOSUNNY   79  69  69 SW8       29.91F
HARBOR SPRINGS CLOUDY    77  69  76 SW7       29.85F
HOUGHTON LAKE  PTSUNNY   79  67  66 SW7       29.92F
MANISTEE       CLOUDY    75  68  78 W10       29.90S
OSCODA         MOSUNNY   82  66  57 S7        29.90F
PELLSTON       PTSUNNY   81  69  67 SW10      29.85F
ROGERS CITY    MOSUNNY   81  67  62 S8        29.87F
TRAVERSE CITY  CLOUDY    79  70  74 SW8       29.86S
$$
MIZ007>008-015-291500-
EASTERN UPPER MICHIGAN

CITY           SKY/WX    TMP DP  RH WIND       PRES   REMARKS
KINROSS        MOSUNNY   81  66  61 SW8G18    29.83S
MACKINAC ISLAN CLOUDY    78  67  69 SW6       29.83F
MUNISING         N/A     78  57  48 W8G17     29.78S
$$
MIZ004>006-011>014-085-291500-
CENTRAL UPPER MICHIGAN

CITY           SKY/WX    TMP DP  RH WIND       PRES   REMARKS
ESCANABA       MOSUNNY   77  54  44 W14G25    29.81S
MENOMINEE      PTSUNNY   75  54  46 W13G20    29.85F
SAWYER-GWINN   SUNNY     73  52  46 W9G26     29.80F
$$
MIZ001>003-009>011-084-291500-
WESTERN UPPER MICHIGAN

CITY           SKY/WX    TMP DP  RH WIND       PRES   REMARKS
IRON MOUNTAIN  SUNNY     74  50  42 W10G22    29.83F
HOUGHTON       SUNNY     73  49  42 W22G36    29.71F
COPPER HARBOR    N/A     75  50  41 W12G23    29.69F
IRONWOOD       MOSUNNY   68  50  52 W26G38    29.75S
$$

ABBREVIATIONS USED IN REMARKS
   TC - TEMPERATURE IN CELSIUS
  WCI - WIND CHILL INDEX
   HX - HEAT INDEX
  VSB - VISIBILITY




USA.gov is the U.S. government's official web portal to all federal, state and local government web resources and services.